sat.trackr.live / text

‹ back to catalog

STARLINK-32076

NORAD 60350 · 2024-136X

PAYLOAD ACTIVE UNKNOWN

§ Identity

Operator
Country
US
Launch date
2024-08-02
Launch site
AFETR
Launch vehicle
Mass (kg)
RCS (m²)

Purposes: comms

External: N2YO · Heavens-Above · Gunter

§ Orbital elements

Epoch: 2026-05-25T04:47:04.158816Z

Period
94.01 min
Inclination
53.1614°
Eccentricity
0.0001327
Mean motion
15.31696107 rev/d
Perigee alt
469.8 km
Apogee alt
471.7 km
Semi-major
6,848.9 km
B*
-1.0303e-5
RAAN
79.9177°
Arg perigee
95.3008°
Mean anomaly
264.8145°
Rev number
10,138

§ Raw data

STARLINK-320761 60350U 24136X   26145.19935369 -.00000685  00000+0 -10303-4 0  99942 60350  53.1614  79.9177 0001327  95.3008 264.8145 15.31696107101386

JSON: /api/v1/satellites/60350 · /tle

For live sub-satellite position, see the globe view (requires WebGL).

§ Visibility from observer

Set your observer location to see the next 7 days of passes ≥ 10°. The values pass through the URL so the page stays shareable.

No JS? Fill the form by hand. The geolocation button needs JavaScript.